Weather History for Woensdrecht, Netherlands

Change the Weather History Date:

Wednesday, October 3, 2012

  Actual Average Record
Temperature  
Mean Temperature 55 °F -  
Max Temperature 59 °F 56 °F 77 °F (2011)
Min Temperature 51 °F 44 °F 39 °F (2005)
Degree Days  
Heating Degree Days 10    
Growing Degree Days 5 (Base 50)    
Moisture  
Dew Point 52 °F    
Average Humidity 85    
Maximum Humidity 100    
Minimum Humidity 72    
Precipitation  
Precipitation 0.00 in - - ()
Sea Level Pressure  
Sea Level Pressure 29.77 in    
Wind  
Wind Speed 10 mph ()    
Max Wind Speed 17 mph    
Max Gust Speed 28 mph    
Visibility 6.1 miles    
Events Rain    
Averages and records for this station are not official NWS values.
T = Trace of Precipitation, MM = Missing Value Source: Averaged Metar Reports

Daily Weather History Graph

Daily Weather History Graph

Search for Another Location

Airport:

Trip Planner

Search our weather history database for the weather conditions in past years. The results will help you decide how hot, cold, wet, or windy it might be!

Date:

Astronomy

Oct. 03, 2012 Rise Set
Actual Time 7:47 AM CEST 7:15 PM CEST
Civil Twilight 7:13 AM CEST 7:48 PM CEST
Nautical Twilight 6:35 AM CEST 8:26 PM CEST
Astronomical Twilight 5:55 AM CEST 9:06 PM CEST
Moon 8:28 PM CEST (10/3) 11:23 AM CEST (10/3)
Length of Visible Light 12h 34m
Length of Day
11h 28m
Waning Gibbous, 90% of the Moon is Illuminated
Oct 3
Waning Gibbous
Oct 8
Last Quarter
Oct 15
New
Oct 22
First Quarter
Oct 29
Full

Hourly Weather History & Observations

Time (CEST) Temp. Dew Point Humidity Pressure Visibility Wind Dir Wind Speed Gust Speed Precip Events Conditions
12:25 AM 59.0 °F 51.8 °F 77% 29.83 in 6.2 mi South 8.1 mph - N/A   Overcast
12:55 AM 59.0 °F 50.0 °F 72% 29.83 in 6.2 mi South 10.4 mph - N/A   Mostly Cloudy
1:25 AM 59.0 °F 50.0 °F 72% 29.83 in 6.2 mi SSW 10.4 mph - N/A   Overcast
1:55 AM 59.0 °F 50.0 °F 72% 29.83 in 6.2 mi SSW 11.5 mph - N/A   Light Drizzle
2:25 AM 57.2 °F 51.8 °F 82% 29.80 in 6.2 mi SSW 11.5 mph 23.0 mph N/A   Light Drizzle
2:55 AM 57.2 °F 51.8 °F 82% 29.80 in 6.2 mi SSW 11.5 mph - N/A   Light Drizzle
2:56 AM 57.2 °F 51.8 °F 82% 29.80 in 6.2 mi SSW 11.5 mph - N/A   Light Drizzle
3:13 AM 57.2 °F 51.8 °F 82% 29.80 in 6.2 mi SSW 10.4 mph - N/A   Light Drizzle
3:17 AM 57.2 °F 51.8 °F 82% 29.80 in 6.2 mi SSW 10.4 mph - N/A   Light Drizzle
3:25 AM 57.2 °F 51.8 °F 82% 29.80 in 6.2 mi SSW 10.4 mph 21.9 mph N/A   Light Drizzle
3:29 AM 57.2 °F 51.8 °F 82% 29.80 in 6.2 mi SSW 10.4 mph 21.9 mph N/A   Mostly Cloudy
3:44 AM 57.2 °F 51.8 °F 82% 29.80 in 6.2 mi SSW 10.4 mph - N/A   Light Drizzle
3:55 AM 57.2 °F 53.6 °F 88% 29.80 in 6.2 mi SSW 12.7 mph - N/A Rain Light Rain
3:57 AM 57.2 °F 53.6 °F 88% 29.80 in 6.2 mi SSW 10.4 mph - N/A   Light Drizzle
4:04 AM 57.2 °F 53.6 °F 88% 29.80 in 6.2 mi SSW 10.4 mph - N/A   Mostly Cloudy
4:08 AM 57.2 °F 53.6 °F 88% 29.80 in 6.2 mi SSW 10.4 mph - N/A   Mostly Cloudy
4:12 AM 57.2 °F 53.6 °F 88% 29.80 in 6.2 mi SSW 10.4 mph - N/A   Mostly Cloudy
4:25 AM 57.2 °F 51.8 °F 82% 29.80 in 6.2 mi SSW 10.4 mph - N/A   Mostly Cloudy
4:29 AM 57.2 °F 51.8 °F 82% 29.80 in 6.2 mi SSW 10.4 mph - N/A   Overcast
4:33 AM 57.2 °F 51.8 °F 82% 29.80 in 6.2 mi SSW 9.2 mph - N/A   Mostly Cloudy
4:37 AM 57.2 °F 51.8 °F 82% 29.80 in 6.2 mi SSW 9.2 mph - N/A   Mostly Cloudy
4:43 AM 57.2 °F 51.8 °F 82% 29.80 in 6.2 mi SSW 10.4 mph - N/A   Mostly Cloudy
4:47 AM 57.2 °F 51.8 °F 82% 29.80 in 6.2 mi SSW 11.5 mph - N/A   Mostly Cloudy
4:55 AM 57.2 °F 51.8 °F 82% 29.80 in 6.2 mi SSW 10.4 mph - N/A   Overcast
5:00 AM 57.2 °F 53.6 °F 88% 29.77 in 6.2 mi SSW 10.4 mph - N/A   Overcast
5:04 AM 57.2 °F 51.8 °F 82% 29.77 in 6.2 mi SSW 10.4 mph - N/A   Overcast
5:18 AM 57.2 °F 51.8 °F 82% 29.77 in 6.2 mi SSW 10.4 mph - N/A   Overcast
5:25 AM 57.2 °F 51.8 °F 82% 29.77 in 6.2 mi SSW 11.5 mph - N/A   Overcast
5:48 AM 57.2 °F 51.8 °F 82% 29.77 in 6.2 mi SSW 11.5 mph - N/A   Mostly Cloudy
5:55 AM 57.2 °F 51.8 °F 82% 29.77 in 6.2 mi SSW 10.4 mph - N/A   Overcast
6:01 AM 57.2 °F 51.8 °F 82% 29.77 in 6.2 mi SSW 12.7 mph - N/A   Overcast
6:06 AM 57.2 °F 51.8 °F 82% 29.77 in 6.2 mi SSW 12.7 mph - N/A   Overcast
6:10 AM 57.2 °F 51.8 °F 82% 29.77 in 6.2 mi SSW 12.7 mph - N/A   Mostly Cloudy
6:25 AM 57.2 °F 51.8 °F 82% 29.77 in 6.2 mi SSW 11.5 mph - N/A   Mostly Cloudy
6:29 AM 57.2 °F 51.8 °F 82% 29.77 in 6.2 mi SSW 11.5 mph - N/A   Overcast
6:33 AM 57.2 °F 51.8 °F 82% 29.77 in 6.2 mi SSW 11.5 mph - N/A   Mostly Cloudy
6:39 AM 57.2 °F 51.8 °F 82% 29.77 in 6.2 mi SSW 10.4 mph - N/A   Mostly Cloudy
6:45 AM 57.2 °F 51.8 °F 82% 29.77 in 6.2 mi SSW 11.5 mph - N/A   Partly Cloudy
6:51 AM 57.2 °F 51.8 °F 82% 29.77 in 6.2 mi SSW 11.5 mph - N/A   Scattered Clouds
6:55 AM 57.2 °F 51.8 °F 82% 29.77 in 6.2 mi SSW 11.5 mph - N/A   Partly Cloudy
7:25 AM 57.2 °F 51.8 °F 82% 29.74 in 6.2 mi SSW 11.5 mph - N/A   Mostly Cloudy
7:29 AM 57.2 °F 51.8 °F 82% 29.74 in 6.2 mi SSW 12.7 mph - N/A   Mostly Cloudy
7:50 AM 57.2 °F 51.8 °F 82% 29.74 in 6.2 mi SSW 11.5 mph - N/A   Mostly Cloudy
7:55 AM 57.2 °F 51.8 °F 82% 29.74 in 6.2 mi SSW 11.5 mph - N/A   Overcast
7:59 AM 57.2 °F 51.8 °F 82% 29.74 in 6.2 mi SSW 12.7 mph 27.6 mph N/A   Mostly Cloudy
8:03 AM 57.2 °F 51.8 °F 82% 29.74 in 6.2 mi SSW 12.7 mph 27.6 mph N/A   Mostly Cloudy
8:08 AM 57.2 °F 51.8 °F 82% 29.74 in 6.2 mi SSW 12.7 mph 24.2 mph N/A   Overcast
8:12 AM 57.2 °F 51.8 °F 82% 29.74 in 6.2 mi SSW 13.8 mph 26.5 mph N/A   Overcast
8:25 AM 57.2 °F 51.8 °F 82% 29.74 in 6.2 mi SSW 12.7 mph - N/A   Overcast
8:55 AM 57.2 °F 51.8 °F 82% 29.74 in 6.2 mi SSW 11.5 mph - N/A   Overcast
9:25 AM 57.2 °F 51.8 °F 82% 29.74 in 6.2 mi SSW 11.5 mph 23.0 mph N/A Rain Light Rain
9:55 AM 57.2 °F 53.6 °F 88% 29.77 in 6.2 mi SSW 12.7 mph - N/A Rain Light Rain
10:15 AM 57.2 °F 53.6 °F 88% 29.77 in 6.2 mi SSW 10.4 mph - N/A Rain Rain
10:25 AM 55.4 °F 53.6 °F 94% 29.77 in 4.3 mi SSW 10.4 mph - N/A Rain Rain Showers
10:28 AM 55.4 °F 53.6 °F 94% 29.77 in 5.6 mi SSW 10.4 mph - N/A Rain Rain Showers
10:31 AM 55.4 °F 53.6 °F 94% 29.77 in 5.6 mi SSW 10.4 mph 21.9 mph N/A Rain Rain Showers
10:40 AM 55.4 °F 53.6 °F 94% 29.77 in 6.2 mi SSW 10.4 mph 21.9 mph N/A Rain Rain
10:55 AM 57.2 °F 53.6 °F 88% 29.77 in 6.2 mi SSW 11.5 mph 23.0 mph N/A   Mostly Cloudy
11:06 AM 57.2 °F 53.6 °F 88% 29.77 in 4.3 mi SW 12.7 mph - N/A Rain Drizzle
11:07 AM 57.2 °F 53.6 °F 88% 29.77 in 6.2 mi SW 13.8 mph - N/A   Drizzle
11:16 AM 57.2 °F 53.6 °F 88% 29.77 in 6.2 mi SW 13.8 mph - N/A   Mostly Cloudy
11:20 AM 57.2 °F 53.6 °F 88% 29.77 in 6.2 mi SW 13.8 mph - N/A Rain Light Rain
11:25 AM 57.2 °F 53.6 °F 88% 29.77 in 6.2 mi SW 13.8 mph - N/A Rain Light Rain
11:29 AM 55.4 °F 53.6 °F 94% 29.77 in 4.3 mi SW 15.0 mph - N/A Rain Light Rain Showers
11:32 AM 55.4 °F 53.6 °F 94% 29.77 in 6.2 mi SW 17.3 mph - N/A Rain Light Rain
11:55 AM 55.4 °F 53.6 °F 94% 29.77 in 6.2 mi SW 10.4 mph - N/A Rain Light Rain
12:25 PM 57.2 °F 53.6 °F 88% 29.77 in 6.2 mi SSW 11.5 mph - N/A   Overcast
12:41 PM 59.0 °F 55.4 °F 88% 29.77 in 6.2 mi SW 13.8 mph - N/A   Mostly Cloudy
12:55 PM 59.0 °F 53.6 °F 82% 29.77 in 6.2 mi SW 13.8 mph - N/A   Overcast
1:25 PM 59.0 °F 53.6 °F 82% 29.77 in 6.2 mi SW 13.8 mph - N/A Rain Light Rain
1:33 PM 59.0 °F 53.6 °F 82% 29.77 in 6.2 mi SW 15.0 mph 26.5 mph N/A   Mostly Cloudy
1:55 PM 59.0 °F 51.8 °F 77% 29.77 in 6.2 mi SW 12.7 mph - N/A   Mostly Cloudy
2:25 PM 59.0 °F 51.8 °F 77% 29.77 in 6.2 mi SW 13.8 mph - N/A   Scattered Clouds
2:44 PM 59.0 °F 51.8 °F 77% 29.77 in 6.2 mi SW 12.7 mph - N/A   Overcast
2:55 PM 59.0 °F 51.8 °F 77% 29.77 in 6.2 mi SW 12.7 mph - N/A   Mostly Cloudy
3:25 PM 59.0 °F 51.8 °F 77% 29.77 in 6.2 mi SW 12.7 mph - N/A   Overcast
3:35 PM 59.0 °F 51.8 °F 77% 29.77 in 6.2 mi SW 10.4 mph 21.9 mph N/A Rain Light Rain
3:55 PM 57.2 °F 53.6 °F 88% 29.77 in 5.6 mi SW 11.5 mph - N/A Rain Rain Showers
4:25 PM 55.4 °F 53.6 °F 94% 29.77 in 4.3 mi WSW 11.5 mph - N/A Rain Rain
4:55 PM 55.4 °F 53.6 °F 94% 29.77 in 5.6 mi SW 10.4 mph - N/A Rain Rain
5:25 PM 55.4 °F 53.6 °F 94% 29.77 in 6.2 mi SW 10.4 mph - N/A Rain Light Rain
5:55 PM 53.6 °F 51.8 °F 94% 29.77 in 6.2 mi SW 10.4 mph - N/A Rain Light Rain Showers
6:25 PM 53.6 °F 51.8 °F 94% 29.77 in 6.2 mi SW 11.5 mph - N/A Rain Light Rain Showers
6:55 PM 53.6 °F 51.8 °F 94% 29.77 in 6.2 mi SW 11.5 mph - N/A Rain Light Rain Showers
7:25 PM 53.6 °F 51.8 °F 94% 29.77 in 6.2 mi SW 10.4 mph - N/A Rain Light Rain Showers
7:55 PM 51.8 °F 50.0 °F 94% 29.74 in 6.2 mi SW 6.9 mph - N/A Rain Light Rain
8:25 PM 51.8 °F 50.0 °F 94% 29.74 in 6.2 mi SSW 6.9 mph - N/A   Drizzle
8:55 PM 51.8 °F 51.8 °F 100% 29.74 in 6.2 mi South 5.8 mph - N/A Rain Light Rain
9:25 PM 53.6 °F 50.0 °F 88% 29.74 in 6.2 mi South 8.1 mph - N/A   Drizzle
9:55 PM 51.8 °F 50.0 °F 94% 29.74 in 6.2 mi SSW 5.8 mph - N/A   Light Drizzle
10:25 PM 51.8 °F 50.0 °F 94% 29.74 in 6.2 mi SW 5.8 mph - N/A   Overcast
10:55 PM 51.8 °F 50.0 °F 94% 29.74 in 4.3 mi SW 8.1 mph - N/A Rain Light Rain
11:25 PM 51.8 °F 50.0 °F 94% 29.74 in 6.2 mi SSW 8.1 mph - N/A   Light Drizzle
11:55 PM 51.8 °F 50.0 °F 94% 29.74 in 6.2 mi SSW 4.6 mph - N/A   Overcast